Location: Unspecified
(35.7250°N, 0.0000°E)
Time: 13:35:58
(UTC+00:00)

Explorer 7 - Pass Details

Date: 20 August 2020
Orbit: 485 x 679 km, 50.3° (Epoch: 21 September)

Event Time Altitude Azimuth Distance (km) Brightness Sun altitude
Rises 21:09:57 0° 316° (NW) 2,626 11.6 -27.1°
Reaches altitude 10° 21:12:23 10° 327° (NNW) 1,712 10.2 -27.5°
Enters shadow 21:14:32 24° 355° (N) 1,067 8.7 -27.8°
